• In Österreich
  • Länderverzeichnis
  • Für 7 Tage
  • Wassertemperatur
  • Satellitenkarten
  • Wetterkarte
  • News
  • Widgets
  • user-avatar
    Anmelden

    Stündliche Wetter Bogucino

    Heute, 15 Oktober, Montag

    Zeit Temperatur Niederschläge Wind Luftdruck Luftfeuchtigkeit
    00:00 +15°C° 0 mm 6 m/S 761 mmHg 60%
    01:00 +15°C° 0 mm 6 m/S 760 mmHg 63%
    02:00 +14°C° 0 mm 6 m/S 760 mmHg 62%
    03:00 +14°C° 0 mm 6 m/S 760 mmHg 61%
    04:00 +14°C° 0 mm 6 m/S 760 mmHg 61%
    05:00 +13°C° 0 mm 6 m/S 760 mmHg 59%
    06:00 +13°C° 0 mm 6 m/S 760 mmHg 56%
    07:00 +13°C° 0 mm 6 m/S 760 mmHg 54%
    08:00 +14°C° 0 mm 6 m/S 761 mmHg 50%
    09:00 +16°C° 0 mm 6 m/S 761 mmHg 46%
    10:00 +17°C° 0 mm 6 m/S 761 mmHg 42%
    11:00 +19°C° 0 mm 6 m/S 761 mmHg 41%
    12:00 +20°C° 0 mm 6 m/S 761 mmHg 40%
    13:00 +21°C° 0 mm 6 m/S 761 mmHg 38%
    14:00 +21°C° 0 mm 5 m/S 761 mmHg 41%
    15:00 +20°C° 0 mm 5 m/S 761 mmHg 43%
    16:00 +20°C° 0 mm 4 m/S 760 mmHg 45%
    17:00 +19°C° 0 mm 4 m/S 761 mmHg 47%
    18:00 +18°C° 0 mm 4 m/S 761 mmHg 49%
    19:00 +17°C° 0 mm 4 m/S 761 mmHg 51%
    20:00 +15°C° 0 mm 4 m/S 761 mmHg 53%
    21:00 +15°C° 0 mm 4 m/S 761 mmHg 56%
    22:00 +14°C° 0 mm 4 m/S 761 mmHg 58%
    23:00 +14°C° 0 mm 4 m/S 761 mmHg 60%

    Morgen, 16 Oktober, Dienstag

    Zeit Temperatur Niederschläge Wind Luftdruck Luftfeuchtigkeit
    00:00 +14°C° 0 mm 4 m/S 761 mmHg 62%
    01:00 +13°C° 0 mm 4 m/S 761 mmHg 64%
    02:00 +13°C° 0 mm 3 m/S 761 mmHg 65%
    03:00 +13°C° 0 mm 3 m/S 761 mmHg 67%
    04:00 +12°C° 0 mm 3 m/S 761 mmHg 68%
    05:00 +12°C° 0 mm 3 m/S 761 mmHg 68%
    06:00 +12°C° 0 mm 3 m/S 762 mmHg 69%
    07:00 +12°C° 0 mm 3 m/S 762 mmHg 70%
    08:00 +13°C° 0 mm 3 m/S 762 mmHg 64%
    09:00 +16°C° 0 mm 3 m/S 762 mmHg 59%
    10:00 +18°C° 0 mm 3 m/S 762 mmHg 54%
    11:00 +19°C° 0 mm 3 m/S 762 mmHg 51%
    12:00 +20°C° 0 mm 2 m/S 762 mmHg 48%
    13:00 +21°C° 0 mm 2 m/S 762 mmHg 45%
    14:00 +20°C° 0 mm 2 m/S 762 mmHg 47%
    15:00 +20°C° 0 mm 2 m/S 762 mmHg 50%
    16:00 +20°C° 0 mm 1 m/S 762 mmHg 53%
    17:00 +18°C° 0 mm 2 m/S 762 mmHg 56%
    18:00 +17°C° 0 mm 2 m/S 762 mmHg 59%
    19:00 +16°C° 0 mm 2 m/S 762 mmHg 61%
    20:00 +15°C° 0 mm 2 m/S 762 mmHg 63%
    21:00 +15°C° 0 mm 2 m/S 763 mmHg 64%
    22:00 +14°C° 0 mm 2 m/S 763 mmHg 65%
    23:00 +14°C° 0 mm 2 m/S 763 mmHg 66%

    übermorgen, 17 Oktober, Mittwoch

    Zeit Temperatur Niederschläge Wind Luftdruck Luftfeuchtigkeit
    00:00 +14°C° 0 mm 2 m/S 763 mmHg 68%
    01:00 +13°C° 0 mm 2 m/S 763 mmHg 69%
    02:00 +13°C° 0 mm 2 m/S 763 mmHg 71%
    03:00 +13°C° 0 mm 2 m/S 763 mmHg 72%
    04:00 +13°C° 0 mm 2 m/S 762 mmHg 74%
    05:00 +12°C° 0 mm 2 m/S 763 mmHg 75%
    06:00 +12°C° 0 mm 2 m/S 763 mmHg 76%
    07:00 +12°C° 0 mm 2 m/S 763 mmHg 78%
    08:00 +14°C° 0 mm 2 m/S 763 mmHg 72%
    09:00 +15°C° 0 mm 2 m/S 763 mmHg 67%
    10:00 +17°C° 0 mm 2 m/S 763 mmHg 62%
    11:00 +18°C° 0 mm 2 m/S 763 mmHg 59%
    12:00 +19°C° 0 mm 2 m/S 763 mmHg 56%
    13:00 +21°C° 0 mm 1 m/S 763 mmHg 53%
    14:00 +21°C° 0 mm 1 m/S 763 mmHg 56%
    15:00 +20°C° 0 mm 1 m/S 762 mmHg 59%
    16:00 +20°C° 0 mm 1 m/S 762 mmHg 62%
    17:00 +18°C° 0 mm 1 m/S 762 mmHg 66%
    18:00 +16°C° 0 mm 1 m/S 762 mmHg 69%
    19:00 +15°C° 0 mm 2 m/S 763 mmHg 73%
    20:00 +15°C° 0 mm 2 m/S 763 mmHg 74%
    21:00 +14°C° 0 mm 2 m/S 763 mmHg 76%
    22:00 +14°C° 0 mm 2 m/S 763 mmHg 78%
    23:00 +14°C° 0 mm 2 m/S 763 mmHg 79%

    18 Oktober, Donnerstag

    Zeit Temperatur Niederschläge Wind Luftdruck Luftfeuchtigkeit
    00:00 +13°C° 0 mm 2 m/S 763 mmHg 80%
    01:00 +13°C° 0 mm 2 m/S 763 mmHg 82%
    02:00 +13°C° 0 mm 2 m/S 763 mmHg 83%
    03:00 +13°C° 0 mm 2 m/S 763 mmHg 84%
    04:00 +12°C° 0 mm 1 m/S 763 mmHg 85%
    05:00 +12°C° 0 mm 1 m/S 763 mmHg 85%
    06:00 +12°C° 0 mm 1 m/S 763 mmHg 85%
    07:00 +12°C° 0 mm 1 m/S 763 mmHg 86%
    08:00 +14°C° 0 mm 1 m/S 763 mmHg 79%
    09:00 +15°C° 0 mm 1 m/S 763 mmHg 72%
    10:00 +18°C° 0 mm 1 m/S 763 mmHg 65%
    11:00 +18°C° 0 mm 2 m/S 763 mmHg 63%
    12:00 +19°C° 0 mm 2 m/S 763 mmHg 60%
    13:00 +19°C° 0 mm 2 m/S 763 mmHg 58%
    14:00 +18°C° 0 mm 2 m/S 763 mmHg 61%
    15:00 +18°C° 0 mm 2 m/S 763 mmHg 64%
    16:00 +17°C° 0 mm 2 m/S 763 mmHg 68%
    17:00 +16°C° 0 mm 2 m/S 763 mmHg 73%
    18:00 +15°C° 0 mm 2 m/S 763 mmHg 78%
    19:00 +13°C° 0 mm 2 m/S 764 mmHg 83%
    20:00 +13°C° 0 mm 2 m/S 764 mmHg 85%
    21:00 +13°C° 0 mm 2 m/S 764 mmHg 87%
    22:00 +12°C° 0 mm 3 m/S 764 mmHg 90%
    23:00 +12°C° 0 mm 3 m/S 764 mmHg 91%

    19 Oktober, Freitag

    Zeit Temperatur Niederschläge Wind Luftdruck Luftfeuchtigkeit
    00:00 +12°C° 0 mm 3 m/S 764 mmHg 91%
    01:00 +11°C° 0 mm 3 m/S 764 mmHg 92%
    02:00 +11°C° 0 mm 3 m/S 764 mmHg 92%
    03:00 +11°C° 0 mm 3 m/S 764 mmHg 91%
    04:00 +11°C° 0 mm 3 m/S 764 mmHg 90%
    05:00 +11°C° 0 mm 3 m/S 764 mmHg 90%
    06:00 +10°C° 0 mm 3 m/S 765 mmHg 90%
    07:00 +10°C° 0 mm 3 m/S 765 mmHg 90%
    08:00 +11°C° 0 mm 3 m/S 765 mmHg 83%
    09:00 +12°C° 0 mm 3 m/S 765 mmHg 76%
    10:00 +13°C° 0 mm 4 m/S 765 mmHg 70%
    11:00 +14°C° 0 mm 4 m/S 765 mmHg 67%
    12:00 +14°C° 0 mm 4 m/S 765 mmHg 65%
    13:00 +14°C° 0 mm 4 m/S 765 mmHg 62%
    14:00 +13°C° 0 mm 4 m/S 765 mmHg 65%
    15:00 +13°C° 0 mm 4 m/S 765 mmHg 68%
    16:00 +12°C° 0 mm 4 m/S 765 mmHg 71%
    17:00 +11°C° 0 mm 4 m/S 765 mmHg 76%
    18:00 +10°C° 0 mm 4 m/S 765 mmHg 82%
    19:00 +9°C° 0 mm 3 m/S 765 mmHg 87%
    20:00 +8°C° 0 mm 3 m/S 766 mmHg 88%
    21:00 +8°C° 0 mm 3 m/S 766 mmHg 89%
    22:00 +8°C° 0 mm 3 m/S 766 mmHg 90%
    23:00 +8°C° 0 mm 3 m/S 766 mmHg 90%

    20 Oktober, Samstag

    Zeit Temperatur Niederschläge Wind Luftdruck Luftfeuchtigkeit
    00:00 +6°C° 0 mm 4 m/S 766 mmHg 91%
    01:00 +6°C° 0 mm 4 m/S 766 mmHg 91%
    02:00 +6°C° 0 mm 4 m/S 766 mmHg 92%
    03:00 +6°C° 0 mm 4 m/S 766 mmHg 92%
    04:00 +6°C° 0 mm 4 m/S 766 mmHg 92%
    05:00 +7°C° 0 mm 4 m/S 766 mmHg 90%
    06:00 +7°C° 0 mm 4 m/S 767 mmHg 88%
    07:00 +7°C° 0 mm 4 m/S 767 mmHg 86%
    08:00 +8°C° 0 mm 5 m/S 767 mmHg 80%
    09:00 +9°C° 0 mm 5 m/S 767 mmHg 74%
    10:00 +10°C° 0 mm 5 m/S 768 mmHg 68%
    11:00 +10°C° 0 mm 5 m/S 768 mmHg 67%
    12:00 +11°C° 0 mm 6 m/S 768 mmHg 66%
    13:00 +11°C° 0 mm 6 m/S 768 mmHg 65%
    14:00 +11°C° 0 mm 6 m/S 768 mmHg 68%
    15:00 +11°C° 0 mm 6 m/S 768 mmHg 70%
    16:00 +10°C° 0 mm 6 m/S 768 mmHg 73%
    17:00 +10°C° 0 mm 5 m/S 768 mmHg 76%
    18:00 +10°C° 0 mm 5 m/S 768 mmHg 79%
    19:00 +10°C° 0 mm 5 m/S 768 mmHg 82%
    20:00 +9°C° 0 mm 5 m/S 768 mmHg 84%
    21:00 +9°C° 0 mm 5 m/S 768 mmHg 86%
    22:00 +10°C° 0 mm 4 m/S 768 mmHg 88%
    23:00 +9°C° 0 mm 5 m/S 768 mmHg 90%
    Mehr zeigen